Regional Weather Roundup
Issued by NWS Cleveland, OH

Home | Current Version | Previous Version | Graphics & Text | Print | Product List | Glossary On
Versions: 1 2 3 4 5 6 7 8 9 10 11 12 13 14 15 16 17 18 19 20 21 22 23 24 25 26 27 28 29 30 31 32 33 34 35 36 37 38 39 40 41 42 43 44 45 46 47 48 49 50
000
ASUS41 KCLE 230602
RWRCLE
OHIO REGIONAL WEATHER ROUNDUP
NATIONAL WEATHER SERVICE CLEVELAND, OH
200 AM EDT THU OCT 23 2014

NOTE: "FAIR" INDICATES FEW OR NO CLOUDS BELOW 12,000 FEET WITH NO
SIGNIFICANT WEATHER AND/OR OBSTRUCTIONS TO VISIBILITY.

OHZ001>008-015>018-024>027-034-035-043-044-230700-
   NORTHWEST OHIO

CITY           SKY/WX    TMP DP  RH WIND       PRES   REMARKS
DEFIANCE       CLEAR     34  32  92 CALM      30.28F
FINDLAY        CLOUDY    44  39  82 W5        30.26S
TOLEDO EXPRESS CLEAR     39  36  89 CALM      30.28S
TOLEDO EXEC    PTCLDY    42  37  82 N3        30.28S
LIMA           CLOUDY    44  40  85 NW6       30.27S
$$

OHZ009>014-019>023-028>033-038-089-230700-
   NORTHEAST OHIO

CITY           SKY/WX    TMP DP  RH WIND       PRES   REMARKS
CLE-HOPKINS    MOCLDY    49  44  83 N7        30.23F
CLE-LAKEFRONT  PTCLDY    52  45  77 N9        30.20F
CUY CO. ARPT   NOT AVBL
LORAIN-ELYRIA  MOCLDY    47  45  93 CALM      30.23S
ASHTABULA      MOCLDY    45  43  93 CALM      30.18F
AKRON-CANTON   CLOUDY    47  43  86 N6        30.18F
WOOSTER        CLOUDY    49  44  83 NW7       30.21S
MANSFIELD      CLOUDY    44  42  93 NW6       30.23S
YOUNGSTOWN     MOCLDY    44  42  93 NW5       30.17S
$$

OHZ042-051>053-060>062-070>072-077>081-230700-
  SOUTHWEST OHIO

CITY           SKY/WX    TMP DP  RH WIND       PRES   REMARKS
CINC-COVINGTON CLOUDY    48  38  68 CALM      30.25F
CINC-LUNKEN    CLOUDY    45  42  89 CALM      30.27S
HAMILTON       MOCLDY    42  40  92 CALM      30.27S
DAYTON         MOCLDY    44  39  82 NW6       30.27S
WRIGHT-PAT AFB PTCLDY    42  40  91 W1        30.25F
DAYTON GENERAL MOCLDY    44  39  82 CALM      30.25S
WILMINGTON     CLOUDY    47  39  74 N6        30.24S
$$

OHZ036-037-039>041-045>050-054>059-063>069-073>076-082>088-230700-
  CENTRAL AND SOUTHEAST OHIO

CITY           SKY/WX    TMP DP  RH WIND       PRES   REMARKS
COLUMBUS       PTCLDY    46  40  79 NW8       30.23S
OSU AIRPORT    CLOUDY    46  40  79 NW7       30.24S
BOLTON FIELD   CLOUDY    46  41  82 N7        30.24S
RICKENBACK AFB PTCLDY    46  41  81 NW9       30.23S
NEWARK         PTCLDY    42  39  89 NW6       30.22R
MARION         PTCLDY    42  39  89 NW6       30.25S
LANCASTER      CLEAR     44  40  85 NW5       30.22S
ZANESVILLE     CLEAR     42  38  85 NW3       30.20S
NEW PHILLY     CLOUDY    46  42  86 NW3       30.19F
$$



USA.gov is the U.S. government's official web portal to all federal, state and local government web resources and services.